Location: Lahitte
(43.6596°N, 0.6805°E)
Time: 08:26:18
(UTC+00:00)

Cosmos 2026 Rocket - Pass Details

Date: 15 May 2026
Orbit: 939 x 999 km, 82.9° (Epoch: 6 June)

Event Time Altitude Azimuth Distance (km) Brightness Sun altitude
Rises 22:31:03 0° 349° (N) 3,730 8.4 -24.5°
Reaches altitude 10° 22:33:36 10° 347° (NNW) 2,777 7.4 -24.7°
Maximum altitude 22:39:56 68° 267° (W) 1,072 4.2 -25.1°
Enters shadow 22:41:40 48° 205° (SSW) 1,282 4.3 -25.2°
